Location: Home
(42.5358°N, 72.7383°W)
Time: 00:11:55
(UTC-04:00)

ISS - Visible Passes

Search period start: 17 October 2021 00:00
Search period end: 27 October 2021 00:00
Orbit: 417 x 423 km, 51.6° (Epoch: 16 October)

Date Brightness Start Highest point End Pass type
(mag) Time Alt. Az. Time Alt. Az. Time Alt. Az.
19 Oct -0.6 06:23:59 10° SSE 06:25:41 13° SE 06:27:22 10° E visible
21 Oct -2.2 06:24:37 10° SSW 06:27:45 37° SE 06:30:54 10° ENE visible
22 Oct -1.4 05:37:57 10° S 05:40:39 22° SE 05:43:21 10° E visible
23 Oct -0.9 04:53:18 14° SE 04:53:35 14° SE 04:55:23 10° E visible
23 Oct -3.8 06:26:39 10° WSW 06:30:01 77° NNW 06:33:24 10° NE visible
24 Oct -3.5 05:41:39 37° SSW 05:42:47 65° SE 05:46:07 10° ENE visible
25 Oct -1.6 04:56:48 27° E 04:56:48 27° E 04:58:45 10° ENE visible
25 Oct -2.9 06:29:48 13° W 06:32:27 34° NNW 06:35:34 10° NE visible
26 Oct -3.5 05:44:48 47° NW 05:45:05 48° NNW 05:48:23 10° NE visible
